Vorticity
5 4 4 5 6 7 7 7 7 7 6 5 6 5 5 6 7 7 7 7 7 8 9 12 15 19 22 27 33 34 35 35 34 31 27 21 16 10 7 7 9 10 12 9 8 7 3 3 5 4 4 7 9 10 12 12 11 10 9 8 8 7 7
4 5 5 7 7 7 7 7 6 6 5 4 5 5 6 7 7 7 6 7 9 12 16 21 24 27 30 35 38 37 35 31 26 21 17 12 8 6 6 8 10 10 12 11 6 4 4 4 5 7 8 11 12 13 12 10 9 8 8 7 8 8 9
5 7 8 8 7 6 6 6 6 5 5 4 5 6 7 7 6 7 8 11 16 20 25 30 32 33 36 39 38 32 26 20 15 12 10 7 5 6 6 7 7 5 5 6 4 4 6 8 9 11 12 12 11 10 9 8 8 8 8 9 9 9 9
7 8 8 7 6 5 5 5 5 5 5 5 6 7 6 6 7 10 15 20 24 28 33 37 38 37 36 33 27 19 13 10 9 8 7 5 6 7 7 6 6 4 4 6 8 9 11 11 12 11 9 9 9 8 10 11 11 11 11 10 10 10 9
8 7 6 6 5 5 5 5 5 5 6 7 7 7 6 6 11 17 24 30 32 36 39 39 35 28 22 18 12 8 6 6 7 7 6 6 6 7 7 7 8 8 9 11 13 12 11 10 10 8 8 11 13 12 12 12 12 11 11 10 10 9 8
7 6 6 5 5 5 5 5 6 6 7 7 7 6 7 11 19 27 34 37 38 39 36 29 21 14 10 8 6 5 6 7 7 6 6 6 6 7 9 10 10 11 11 11 11 11 10 9 9 9 10 12 13 12 11 10 9 9 10 11 10 9 8
6 5 5 5 4 5 6 6 7 7 7 6 6 7 13 22 31 38 42 41 37 31 23 15 10 7 6 6 6 7 7 6 7 7 7 7 8 10 11 11 10 10 9 9 9 10 10 9 9 10 10 10 9 10 10 11 11 11 10 10 10 8 7
5 5 5 5 5 6 7 8 8 7 6 6 8 14 25 34 42 46 44 36 26 17 10 7 7 6 7 7 7 6 6 7 7 7 8 10 10 11 10 9 9 8 8 9 9 8 8 8 7 8 9 9 9 10 10 11 12 11 10 9 9 7 5
5 5 5 6 7 8 8 8 6 6 7 9 16 26 35 44 49 46 34 20 10 7 6 6 7 7 7 7 7 7 8 8 8 9 10 10 9 8 8 8 8 8 8 8 8 7 7 8 8 9 9 10 10 10 10 10 9 9 9 8 7 6 7
5 5 6 7 9 9 8 6 5 7 10 16 27 36 43 51 48 33 17 8 5 6 7 7 7 7 8 8 9 11 10 9 9 9 8 8 8 8 9 9 8 8 8 7 7 8 9 10 10 9 10 9 9 9 9 8 8 8 8 8 8 10 14
6 6 8 9 9 7 6 6 7 11 18 28 38 43 49 50 34 12 4 5 6 6 6 6 7 8 9 9 10 10 8 7 7 8 8 8 9 9 8 9 8 8 8 7 9 10 10 11 10 8 8 8 8 9 9 8 9 9 9 12 14 16 19
6 8 9 9 7 5 6 8 13 20 31 41 46 46 45 36 17 4 5 6 6 6 6 7 7 7 8 8 8 8 7 7 8 9 9 8 8 7 7 9 9 8 8 9 10 10 9 8 9 8 8 9 10 10 10 10 11 12 15 20 21 23 28
8 9 9 6 4 5 10 16 22 32 41 47 46 40 30 17 7 6 8 7 7 8 8 8 8 8 9 8 8 9 9 9 9 8 7 6 6 7 8 9 9 8 9 9 9 9 8 7 9 9 8 9 10 11 11 12 14 17 22 24 24 28 32
9 9 6 4 4 11 20 26 31 41 47 46 38 26 15 8 6 7 8 7 9 9 9 11 10 9 9 8 9 10 9 8 8 6 6 7 7 8 8 8 8 7 8 8 7 8 9 8 9 9 9 10 11 12 14 15 18 23 25 24 25 29 30
8 5 4 4 10 22 32 34 38 46 45 35 23 13 8 7 7 7 7 9 11 12 11 10 8 8 10 10 9 9 7 6 7 7 7 8 8 9 9 8 8 7 7 8 8 9 9 8 9 9 9 11 12 14 16 18 23 28 26 23 24 25 24
5 3 4 10 20 34 42 41 41 42 33 19 12 9 8 7 7 7 9 11 12 11 9 8 8 10 10 9 7 6 6 6 7 7 8 9 9 10 9 8 8 8 8 8 8 9 9 8 8 8 10 12 14 16 18 20 25 26 22 20 21 20 19
4 4 10 22 34 44 48 41 33 27 17 9 10 10 8 7 7 9 11 11 9 8 8 9 11 10 7 6 5 6 7 7 8 9 9 9 9 9 8 8 8 8 8 8 8 8 8 7 8 9 13 17 20 21 19 21 25 24 18 18 18 15 16
4 11 24 36 44 48 45 32 19 13 10 7 9 10 7 8 10 11 11 10 8 9 11 10 8 6 5 5 6 7 8 8 8 9 8 7 8 9 8 8 8 8 8 7 7 7 6 6 7 9 14 20 23 23 20 19 21 19 16 17 16 14 15
9 25 40 47 48 44 33 19 9 8 9 8 8 9 9 10 12 11 10 11 11 11 9 6 4 5 6 7 7 8 9 9 8 7 7 7 7 8 8 8 7 7 7 7 7 7 6 6 7 9 14 20 23 23 20 19 18 15 14 15 15 13 14
23 43 52 49 42 31 18 9 6 7 9 8 8 11 12 11 11 11 11 11 9 6 3 3 5 6 7 8 9 9 9 8 7 7 7 6 7 7 8 7 7 7 7 7 7 7 7 7 8 12 17 23 25 23 21 20 18 17 15 14 14 12 13
41 57 55 40 27 16 9 7 7 6 7 10 12 13 12 10 10 12 11 7 4 4 5 6 6 7 8 9 9 8 8 7 7 7 7 6 7 7 7 8 8 8 8 8 8 8 7 7 9 15 21 25 25 22 19 19 19 18 17 16 15 13 12
56 59 44 24 13 9 7 7 7 7 11 14 13 10 9 11 12 12 7 4 3 5 7 8 8 8 9 9 8 7 8 7 7 7 7 6 7 7 8 8 9 8 8 8 8 8 7 7 11 18 23 25 25 22 19 18 18 19 20 19 17 15 13
58 47 27 12 7 8 7 6 8 12 14 12 9 8 11 13 11 7 5 5 6 7 8 9 10 9 8 7 7 7 7 7 7 7 7 7 7 7 8 8 8 9 9 9 9 8 8 9 14 20 24 25 24 22 18 17 17 19 21 21 19 17 16
46 29 14 8 8 8 7 9 13 14 12 9 9 13 14 10 6 5 7 8 8 9 10 10 10 10 9 8 7 7 7 7 7 7 7 7 7 7 8 8 7 8 8 8 9 8 9 12 17 22 25 25 23 21 18 16 18 20 22 22 21 19 18
28 14 9 8 7 7 10 15 16 11 8 10 14 14 9 4 5 7 8 8 10 11 11 11 10 9 8 7 6 7 7 7 7 7 7 7 8 7 7 7 7 8 8 8 8 8 10 14 19 24 25 25 22 20 17 16 19 22 24 23 23 23 20
14 9 9 7 7 10 15 14 10 8 12 15 13 8 4 4 6 8 8 9 11 11 10 10 10 8 7 7 7 7 7 7 7 8 7 7 7 7 7 7 7 8 8 8 7 8 11 16 22 25 25 24 21 18 16 16 19 23 24 23 24 26 24
9 10 8 7 11 15 13 9 9 13 16 12 6 3 5 6 6 6 9 10 10 10 10 9 8 8 7 8 7 7 8 8 7 7 7 7 7 7 7 7 8 7 8 8 7 9 12 17 23 26 25 22 20 17 15 16 20 23 23 21 22 27 28
10 9 7 10 15 13 9 10 16 17 10 4 2 2 4 5 5 6 7 7 7 9 9 8 8 8 8 8 8 7 7 7 7 7 7 7 7 7 7 8 8 8 8 8 8 10 13 18 24 26 25 21 19 16 14 16 20 22 21 18 19 23 27
10 8 9 13 14 12 13 16 16 11 3 0 1 1 0 2 4 4 4 5 5 6 7 7 8 8 7 8 7 7 6 7 7 6 7 7 7 7 7 8 8 8 8 7 9 11 15 20 24 26 24 20 18 16 15 17 20 22 19 16 16 18 22
8 9 14 14 11 16 21 16 6 2 2 1 -0 -0 0 1 1 2 2 2 3 5 6 6 7 7 8 7 7 7 6 6 6 6 7 8 7 7 8 8 8 8 7 7 9 11 16 21 24 24 23 19 17 17 16 17 19 21 19 15 15 17 18
8 11 15 13 11 17 20 10 -0 -1 1 0 -1 -0 0 -0 0 1 2 1 1 3 5 6 7 8 8 7 7 7 6 6 7 7 7 7 8 8 8 8 8 8 7 7 9 12 17 22 24 23 21 18 16 16 17 18 19 20 19 16 14 16 16
11 12 12 11 14 16 11 4 1 0 0 -0 -0 -1 -1 -1 -0 1 1 1 1 1 3 5 6 7 7 7 7 7 6 6 6 6 6 7 8 7 8 8 8 8 7 7 9 12 18 23 25 23 19 17 16 16 17 18 18 18 19 17 15 15 16
12 9 7 11 17 13 5 1 1 -0 -0 0 -0 -1 -0 -0 -0 1 1 2 2 1 2 3 4 5 6 6 6 6 6 6 5 5 6 7 7 7 8 8 7 7 6 6 8 12 18 24 25 23 19 16 16 16 17 17 18 17 17 17 16 15 16
8 6 5 11 14 9 4 2 0 -1 0 0 -0 1 2 1 1 1 1 2 3 3 2 3 3 4 5 5 5 5 5 5 5 5 6 6 6 8 8 7 7 7 5 5 8 11 17 24 26 23 19 16 15 16 16 17 17 17 16 15 15 16 15
5 5 8 12 12 8 5 2 0 -1 -0 -0 0 2 2 3 3 3 2 2 3 4 3 3 3 4 4 4 4 4 4 4 4 4 5 6 6 7 7 7 7 7 5 5 7 10 16 23 26 23 18 16 15 15 16 17 16 16 16 15 14 15 15
5 9 13 15 13 8 4 2 1 0 0 0 1 2 3 4 5 4 4 4 4 4 4 4 3 4 4 4 4 4 4 4 4 3 4 5 6 7 8 7 7 7 6 5 6 9 15 23 27 24 18 15 15 14 15 16 17 16 16 15 15 15 15
Height
5551 5549 5546 5543 5540 5536 5533 5530 5527 5523 5520 5515 5511 5506 5500 5495 5490 5484 5478 5472 5466 5462 5458 5453 5447 5442 5439 5435 5430 5425 5421 5417 5413 5411 5409 5405 5403 5401 5397 5394 5393 5392 5396 5396 5388 5384 5382 5375 5373 5370 5364 5360 5359 5355 5351 5348 5344 5340 5337 5333 5329 5324 5318
5544 5541 5538 5535 5531 5527 5524 5521 5518 5515 5511 5507 5502 5496 5490 5485 5479 5473 5467 5460 5454 5449 5445 5441 5435 5430 5427 5424 5420 5415 5412 5410 5407 5405 5404 5400 5397 5396 5392 5388 5386 5384 5385 5388 5384 5377 5373 5368 5364 5362 5356 5351 5349 5347 5343 5340 5335 5331 5327 5323 5318 5314 5308
5536 5533 5530 5527 5523 5519 5515 5512 5509 5506 5503 5499 5493 5487 5480 5474 5468 5462 5456 5449 5443 5438 5433 5429 5424 5419 5417 5414 5411 5408 5405 5403 5402 5399 5398 5396 5392 5390 5387 5382 5380 5377 5375 5377 5377 5370 5365 5361 5356 5353 5348 5342 5339 5337 5333 5330 5326 5322 5318 5313 5308 5304 5297
5528 5525 5522 5518 5514 5510 5506 5503 5500 5496 5493 5489 5484 5478 5471 5464 5458 5451 5445 5439 5433 5428 5423 5419 5414 5411 5408 5407 5405 5402 5400 5397 5396 5394 5392 5390 5387 5384 5382 5378 5373 5370 5367 5366 5367 5363 5357 5352 5348 5344 5338 5332 5329 5327 5323 5320 5316 5312 5308 5303 5298 5294 5287
5520 5516 5513 5509 5505 5502 5498 5494 5490 5487 5483 5480 5475 5469 5462 5455 5448 5441 5434 5428 5422 5418 5414 5410 5407 5404 5402 5401 5399 5396 5394 5392 5390 5388 5386 5384 5381 5378 5375 5372 5367 5363 5359 5356 5356 5354 5350 5343 5338 5335 5330 5322 5319 5318 5314 5310 5306 5302 5298 5293 5289 5284 5277
5511 5508 5504 5500 5496 5493 5489 5484 5480 5477 5474 5469 5464 5459 5453 5446 5439 5432 5425 5419 5414 5409 5406 5404 5401 5399 5396 5395 5394 5391 5389 5387 5384 5382 5380 5377 5374 5371 5368 5364 5360 5355 5351 5348 5345 5344 5341 5336 5330 5326 5321 5313 5308 5306 5303 5300 5297 5293 5287 5282 5279 5274 5268
5503 5500 5496 5491 5487 5483 5479 5475 5470 5467 5464 5460 5454 5449 5443 5436 5429 5423 5416 5411 5407 5403 5400 5398 5396 5394 5392 5389 5388 5386 5383 5381 5379 5377 5374 5370 5367 5364 5360 5356 5352 5348 5344 5340 5337 5334 5331 5327 5322 5316 5311 5305 5299 5295 5291 5287 5285 5284 5278 5271 5267 5264 5258
5495 5491 5487 5483 5478 5474 5470 5465 5460 5457 5454 5450 5444 5439 5434 5427 5420 5414 5409 5404 5401 5398 5395 5394 5391 5389 5387 5384 5382 5380 5377 5375 5373 5370 5368 5363 5359 5356 5353 5349 5345 5341 5336 5332 5329 5326 5322 5318 5313 5306 5300 5296 5290 5285 5281 5276 5272 5270 5268 5262 5256 5251 5246
5486 5483 5479 5474 5469 5464 5460 5455 5450 5447 5444 5439 5435 5429 5424 5419 5412 5407 5403 5400 5397 5394 5391 5389 5387 5384 5381 5378 5376 5373 5371 5369 5366 5363 5360 5357 5353 5349 5345 5342 5338 5333 5329 5324 5321 5317 5312 5308 5304 5297 5290 5286 5281 5274 5271 5267 5261 5257 5254 5249 5246 5241 5232
5478 5474 5470 5465 5460 5455 5450 5445 5441 5437 5433 5428 5424 5420 5416 5411 5405 5401 5398 5396 5393 5390 5387 5384 5382 5379 5376 5373 5370 5367 5365 5363 5360 5357 5354 5351 5347 5343 5339 5335 5331 5326 5320 5316 5313 5308 5302 5298 5295 5288 5279 5276 5271 5264 5259 5255 5249 5245 5241 5235 5233 5230 5221
5469 5464 5460 5456 5451 5445 5440 5435 5431 5427 5423 5418 5414 5411 5408 5405 5401 5397 5394 5391 5389 5386 5383 5381 5378 5375 5372 5369 5366 5363 5360 5358 5355 5352 5349 5345 5341 5336 5331 5326 5323 5318 5312 5307 5304 5300 5293 5287 5284 5279 5270 5264 5260 5254 5248 5243 5237 5232 5228 5222 5217 5215 5209
5459 5455 5451 5446 5441 5436 5431 5425 5421 5417 5413 5409 5405 5403 5401 5399 5396 5393 5390 5387 5385 5382 5380 5377 5374 5371 5368 5365 5362 5360 5357 5354 5351 5348 5344 5340 5335 5330 5325 5319 5313 5309 5304 5299 5294 5290 5285 5277 5272 5269 5262 5252 5247 5243 5237 5231 5225 5218 5213 5208 5202 5199 5195
5450 5446 5441 5437 5432 5426 5420 5415 5411 5408 5404 5401 5398 5396 5395 5393 5390 5388 5386 5383 5380 5378 5375 5372 5370 5367 5364 5361 5358 5355 5352 5349 5346 5343 5339 5334 5330 5324 5319 5313 5306 5299 5294 5289 5284 5281 5276 5267 5260 5258 5253 5242 5235 5231 5225 5219 5214 5207 5200 5195 5189 5185 5182
5442 5437 5432 5427 5423 5416 5410 5405 5402 5399 5396 5394 5392 5390 5389 5387 5385 5383 5380 5377 5375 5372 5369 5366 5364 5362 5359 5356 5352 5349 5346 5343 5340 5337 5333 5328 5323 5319 5313 5307 5301 5294 5288 5281 5274 5270 5266 5259 5250 5245 5242 5233 5223 5218 5212 5206 5201 5195 5187 5182 5178 5175 5170
5433 5428 5423 5417 5413 5407 5400 5395 5393 5392 5390 5388 5387 5386 5384 5382 5380 5378 5375 5372 5369 5366 5364 5361 5358 5356 5354 5351 5347 5344 5340 5337 5334 5331 5327 5322 5317 5312 5307 5302 5296 5289 5283 5275 5268 5262 5256 5250 5241 5233 5229 5221 5212 5205 5199 5192 5188 5182 5175 5170 5168 5165 5161
5425 5419 5414 5408 5403 5399 5392 5387 5386 5386 5384 5382 5382 5381 5379 5377 5375 5373 5370 5367 5364 5361 5358 5356 5353 5351 5348 5345 5342 5338 5334 5331 5328 5324 5320 5315 5311 5306 5301 5296 5290 5284 5277 5270 5263 5256 5248 5242 5234 5225 5218 5211 5201 5194 5188 5182 5178 5171 5164 5161 5159 5157 5154
5416 5410 5405 5399 5394 5391 5386 5381 5379 5380 5379 5377 5377 5376 5374 5372 5370 5368 5365 5363 5360 5357 5354 5351 5348 5346 5343 5340 5336 5333 5329 5325 5321 5317 5313 5309 5305 5300 5295 5290 5284 5278 5272 5264 5256 5249 5241 5233 5224 5215 5207 5198 5189 5181 5173 5168 5167 5162 5156 5153 5150 5148 5147
5407 5400 5395 5391 5386 5383 5381 5377 5374 5375 5374 5372 5371 5371 5369 5367 5365 5363 5361 5359 5356 5353 5350 5347 5344 5340 5338 5334 5330 5326 5322 5318 5314 5311 5307 5302 5298 5293 5288 5283 5277 5271 5265 5258 5251 5244 5235 5227 5218 5210 5201 5192 5182 5173 5161 5153 5149 5147 5144 5143 5140 5137 5137
5399 5392 5386 5382 5379 5376 5375 5374 5370 5369 5369 5368 5366 5365 5364 5362 5360 5359 5357 5354 5352 5349 5346 5342 5339 5335 5332 5328 5325 5320 5316 5312 5308 5304 5300 5295 5291 5286 5280 5275 5270 5264 5259 5252 5245 5237 5229 5221 5212 5204 5196 5187 5179 5171 5161 5150 5141 5134 5131 5131 5129 5126 5125
5390 5385 5379 5375 5373 5371 5370 5369 5367 5365 5364 5363 5361 5360 5359 5357 5355 5354 5352 5350 5347 5344 5341 5337 5334 5330 5326 5323 5319 5315 5310 5306 5301 5297 5293 5288 5283 5279 5274 5269 5263 5257 5250 5244 5237 5229 5221 5212 5203 5194 5186 5178 5170 5164 5157 5149 5140 5131 5124 5121 5120 5116 5114
5382 5378 5373 5369 5368 5367 5365 5364 5363 5361 5359 5358 5357 5355 5354 5353 5351 5349 5347 5345 5342 5339 5336 5333 5329 5325 5321 5318 5314 5309 5305 5300 5295 5291 5286 5281 5276 5271 5266 5261 5255 5249 5242 5235 5228 5221 5212 5203 5195 5186 5177 5169 5162 5155 5148 5142 5135 5128 5121 5116 5112 5109 5106
5374 5371 5368 5364 5363 5362 5361 5359 5359 5357 5355 5354 5352 5351 5349 5348 5346 5344 5342 5340 5338 5334 5331 5328 5324 5320 5316 5312 5308 5304 5299 5294 5289 5284 5279 5274 5269 5263 5257 5252 5246 5240 5234 5226 5219 5212 5205 5195 5187 5179 5170 5162 5155 5148 5141 5135 5128 5122 5117 5111 5106 5102 5098
5367 5365 5363 5361 5359 5358 5356 5355 5354 5353 5351 5350 5348 5347 5345 5344 5342 5340 5337 5335 5333 5329 5326 5323 5319 5315 5311 5307 5303 5298 5293 5288 5283 5278 5272 5267 5262 5256 5250 5243 5237 5231 5225 5218 5210 5203 5196 5187 5178 5170 5162 5154 5147 5141 5135 5128 5121 5115 5110 5105 5101 5096 5093
5361 5360 5358 5357 5355 5354 5352 5351 5350 5349 5347 5346 5345 5344 5342 5340 5338 5336 5333 5331 5328 5325 5321 5318 5314 5310 5306 5302 5297 5292 5287 5282 5277 5272 5266 5261 5255 5249 5242 5236 5229 5223 5216 5209 5202 5194 5187 5178 5170 5161 5154 5146 5140 5134 5127 5121 5115 5108 5102 5097 5093 5090 5086
5355 5355 5354 5353 5352 5350 5349 5347 5346 5345 5343 5342 5341 5340 5339 5337 5334 5332 5329 5326 5323 5320 5316 5313 5309 5305 5300 5296 5291 5287 5282 5277 5271 5266 5260 5254 5248 5242 5235 5229 5222 5216 5209 5202 5194 5187 5179 5170 5162 5153 5146 5139 5132 5126 5120 5114 5108 5102 5095 5090 5086 5082 5079
5351 5350 5349 5348 5348 5347 5345 5344 5343 5341 5340 5339 5338 5336 5335 5333 5330 5327 5325 5322 5318 5315 5311 5307 5303 5299 5295 5290 5286 5281 5276 5271 5265 5260 5254 5248 5242 5236 5229 5223 5216 5209 5202 5195 5188 5180 5171 5163 5154 5146 5138 5131 5125 5118 5112 5106 5101 5095 5089 5083 5079 5076 5072
5346 5345 5345 5344 5344 5343 5342 5341 5339 5337 5336 5335 5334 5333 5330 5328 5326 5323 5320 5317 5314 5310 5306 5302 5298 5294 5289 5285 5280 5275 5270 5265 5260 5254 5248 5242 5236 5230 5223 5216 5209 5202 5195 5188 5180 5172 5164 5155 5146 5138 5131 5124 5118 5111 5105 5099 5093 5088 5083 5078 5073 5070 5066
5342 5341 5340 5340 5340 5339 5338 5337 5334 5333 5333 5332 5330 5328 5326 5324 5321 5319 5316 5312 5309 5305 5301 5297 5293 5288 5284 5280 5275 5270 5265 5260 5254 5248 5242 5236 5230 5223 5217 5209 5202 5195 5187 5179 5172 5164 5155 5147 5139 5131 5124 5117 5111 5104 5098 5092 5086 5081 5076 5071 5067 5063 5059
5337 5336 5336 5336 5335 5335 5334 5333 5331 5330 5329 5328 5326 5324 5322 5319 5317 5314 5311 5308 5304 5300 5296 5292 5288 5284 5279 5275 5270 5265 5260 5254 5248 5242 5236 5230 5223 5217 5210 5202 5195 5187 5180 5172 5164 5156 5147 5139 5132 5124 5117 5111 5105 5098 5091 5085 5079 5074 5069 5065 5061 5057 5053
5333 5332 5331 5332 5331 5330 5329 5328 5327 5326 5325 5323 5321 5319 5317 5314 5312 5309 5306 5302 5299 5295 5291 5287 5283 5279 5274 5270 5265 5260 5254 5248 5243 5237 5231 5224 5217 5210 5204 5196 5188 5181 5173 5165 5157 5148 5140 5132 5124 5117 5110 5104 5098 5092 5085 5079 5073 5067 5063 5059 5055 5051 5047
5328 5327 5327 5327 5327 5326 5324 5323 5323 5322 5320 5318 5316 5314 5312 5309 5306 5304 5301 5297 5294 5290 5286 5283 5278 5274 5269 5264 5259 5254 5248 5242 5237 5231 5225 5219 5212 5204 5197 5190 5183 5175 5167 5159 5150 5142 5133 5125 5117 5110 5103 5097 5091 5085 5079 5073 5067 5061 5057 5052 5048 5045 5041
5323 5323 5323 5322 5322 5321 5320 5319 5318 5317 5315 5314 5312 5309 5307 5304 5301 5299 5296 5292 5289 5286 5281 5277 5273 5268 5263 5258 5253 5248 5242 5237 5231 5225 5219 5213 5206 5199 5191 5184 5176 5169 5161 5152 5144 5136 5127 5118 5110 5103 5097 5090 5084 5078 5073 5067 5061 5056 5051 5047 5042 5039 5035
5318 5318 5318 5318 5317 5317 5316 5315 5314 5312 5311 5309 5307 5305 5303 5300 5297 5294 5291 5288 5284 5280 5276 5272 5267 5263 5258 5252 5247 5242 5236 5231 5225 5219 5213 5207 5200 5193 5186 5178 5171 5163 5155 5146 5138 5130 5121 5113 5104 5097 5091 5085 5078 5072 5066 5061 5055 5050 5045 5041 5037 5033 5029
5314 5313 5314 5313 5312 5312 5311 5310 5309 5308 5306 5305 5303 5301 5298 5296 5292 5289 5286 5282 5279 5275 5271 5266 5262 5257 5252 5247 5241 5236 5231 5225 5219 5213 5207 5201 5194 5187 5180 5173 5165 5157 5149 5141 5132 5124 5115 5107 5098 5091 5084 5079 5072 5066 5060 5054 5049 5044 5039 5035 5031 5027 5023
5310 5309 5309 5309 5308 5308 5306 5305 5304 5303 5302 5300 5298 5296 5294 5291 5288 5284 5280 5277 5273 5269 5265 5261 5256 5251 5246 5241 5236 5231 5225 5219 5213 5207 5201 5195 5188 5181 5174 5167 5159 5152 5144 5135 5127 5118 5110 5101 5093 5085 5078 5072 5066 5060 5054 5048 5042 5037 5032 5028 5023 5020 5017
5308 5307 5306 5306 5305 5305 5303 5302 5301 5299 5298 5296 5294 5292 5289 5287 5283 5280 5276 5272 5268 5264 5259 5255 5251 5246 5241 5236 5231 5225 5219 5213 5207 5201 5195 5189 5182 5176 5169 5161 5154 5146 5138 5130 5122 5113 5104 5096 5087 5079 5072 5065 5059 5053 5047 5041 5036 5030 5025 5020 5016 5013 5010